Tiempo cada hora Czyzowice

Hoy, 4 Agosto, Miércoles

Tiempo Temperatura Precipitaciones Viento Presión Humedad
00:00 +16°C° 0.1 mm 1 mps 741 mmHg 84%
01:00 +15°C° 0 mm 1 mps 741 mmHg 87%
02:00 +15°C° 0 mm 1 mps 741 mmHg 87%
03:00 +14°C° 0 mm 1 mps 740 mmHg 86%
04:00 +14°C° 0 mm 1 mps 740 mmHg 86%
05:00 +16°C° 0 mm 1 mps 740 mmHg 81%
06:00 +18°C° 0 mm 1 mps 741 mmHg 76%
07:00 +19°C° 0 mm 1 mps 741 mmHg 72%
08:00 +20°C° 0 mm 1 mps 741 mmHg 69%
09:00 +21°C° 0 mm 1 mps 741 mmHg 66%
10:00 +22°C° 0 mm 1 mps 741 mmHg 63%
11:00 +21°C° 0 mm 2 mps 741 mmHg 62%
12:00 +23°C° 0 mm 2 mps 741 mmHg 60%
13:00 +24°C° 0 mm 3 mps 741 mmHg 59%
14:00 +22°C° 0 mm 3 mps 741 mmHg 61%
15:00 +22°C° 0 mm 3 mps 741 mmHg 63%
16:00 +21°C° 0 mm 3 mps 741 mmHg 65%
17:00 +20°C° 0 mm 2 mps 740 mmHg 70%
18:00 +19°C° 0 mm 2 mps 740 mmHg 76%
19:00 +17°C° 0 mm 2 mps 740 mmHg 81%
20:00 +17°C° 0 mm 2 mps 740 mmHg 83%
21:00 +16°C° 0 mm 2 mps 740 mmHg 86%
22:00 +15°C° 0 mm 1 mps 740 mmHg 88%
23:00 +15°C° 0 mm 1 mps 740 mmHg 89%

Mañana, 5 Agosto, Jueves

Tiempo Temperatura Precipitaciones Viento Presión Humedad
00:00 +15°C° 0 mm 1 mps 740 mmHg 89%
01:00 +15°C° 0 mm 1 mps 740 mmHg 90%
02:00 +14°C° 0 mm 1 mps 739 mmHg 91%
03:00 +14°C° 0 mm 1 mps 739 mmHg 92%
04:00 +14°C° 0 mm 1 mps 739 mmHg 93%
05:00 +15°C° 0 mm 2 mps 739 mmHg 90%
06:00 +16°C° 0 mm 2 mps 739 mmHg 86%
07:00 +17°C° 0 mm 3 mps 738 mmHg 82%
08:00 +17°C° 0.1 mm 3 mps 738 mmHg 82%
09:00 +17°C° 0.1 mm 3 mps 738 mmHg 82%
10:00 +18°C° 0.1 mm 3 mps 738 mmHg 82%
11:00 +18°C° 0.1 mm 3 mps 737 mmHg 83%
12:00 +18°C° 0.1 mm 3 mps 737 mmHg 84%
13:00 +18°C° 0.1 mm 3 mps 737 mmHg 85%
14:00 +18°C° 0.1 mm 3 mps 736 mmHg 87%
15:00 +18°C° 0.1 mm 3 mps 736 mmHg 90%
16:00 +18°C° 0.1 mm 3 mps 735 mmHg 92%
17:00 +17°C° 1.2 mm 3 mps 735 mmHg 93%
18:00 +17°C° 1.2 mm 4 mps 734 mmHg 95%
19:00 +15°C° 1.2 mm 4 mps 734 mmHg 97%
20:00 +16°C° 2.3 mm 3 mps 734 mmHg 97%
21:00 +16°C° 2.3 mm 3 mps 733 mmHg 97%
22:00 +16°C° 2.3 mm 2 mps 733 mmHg 98%
23:00 +16°C° 1.1 mm 3 mps 733 mmHg 98%

Pasado mañana, 6 Agosto, Viernes

Tiempo Temperatura Precipitaciones Viento Presión Humedad
00:00 +16°C° 1.1 mm 3 mps 733 mmHg 98%
01:00 +16°C° 1.1 mm 3 mps 733 mmHg 98%
02:00 +16°C° 0.2 mm 3 mps 733 mmHg 97%
03:00 +16°C° 0.2 mm 3 mps 733 mmHg 97%
04:00 +16°C° 0.2 mm 3 mps 732 mmHg 97%
05:00 +16°C° 0.2 mm 3 mps 733 mmHg 97%
06:00 +16°C° 0.2 mm 3 mps 733 mmHg 97%
07:00 +16°C° 0.2 mm 3 mps 733 mmHg 97%
08:00 +16°C° 0.1 mm 3 mps 733 mmHg 96%
09:00 +15°C° 0.1 mm 4 mps 734 mmHg 94%
10:00 +17°C° 0.1 mm 4 mps 734 mmHg 93%
11:00 +17°C° 0.1 mm 4 mps 735 mmHg 91%
12:00 +17°C° 0.1 mm 4 mps 735 mmHg 89%
13:00 +17°C° 0.1 mm 4 mps 735 mmHg 87%
14:00 +17°C° 0.1 mm 4 mps 736 mmHg 85%
15:00 +18°C° 0.1 mm 4 mps 736 mmHg 84%
16:00 +18°C° 0.1 mm 4 mps 736 mmHg 83%
17:00 +17°C° 0.1 mm 3 mps 736 mmHg 85%
18:00 +16°C° 0.1 mm 3 mps 737 mmHg 88%
19:00 +15°C° 0.1 mm 2 mps 737 mmHg 90%
20:00 +14°C° 0 mm 2 mps 737 mmHg 91%
21:00 +14°C° 0 mm 1 mps 738 mmHg 93%
22:00 +13°C° 0 mm 1 mps 738 mmHg 94%
23:00 +13°C° 0 mm 1 mps 738 mmHg 94%

7 Agosto, Sábado

Tiempo Temperatura Precipitaciones Viento Presión Humedad
00:00 +13°C° 0 mm 1 mps 738 mmHg 93%
01:00 +12°C° 0 mm 1 mps 738 mmHg 93%
02:00 +12°C° 0 mm 1 mps 738 mmHg 93%
03:00 +12°C° 0 mm 1 mps 738 mmHg 93%
04:00 +12°C° 0 mm 1 mps 738 mmHg 93%
05:00 +14°C° 0 mm 1 mps 739 mmHg 89%
06:00 +15°C° 0 mm 1 mps 739 mmHg 85%
07:00 +18°C° 0 mm 1 mps 739 mmHg 81%
08:00 +20°C° 0 mm 1 mps 739 mmHg 75%
09:00 +21°C° 0 mm 2 mps 739 mmHg 68%
10:00 +24°C° 0 mm 2 mps 739 mmHg 62%
11:00 +25°C° 0 mm 2 mps 739 mmHg 58%
12:00 +26°C° 0 mm 2 mps 739 mmHg 55%
13:00 +27°C° 0 mm 2 mps 739 mmHg 51%
14:00 +27°C° 0 mm 2 mps 739 mmHg 51%
15:00 +27°C° 0 mm 2 mps 739 mmHg 51%
16:00 +27°C° 0 mm 2 mps 739 mmHg 51%
17:00 +25°C° 0 mm 2 mps 739 mmHg 59%
18:00 +24°C° 0 mm 3 mps 739 mmHg 67%
19:00 +21°C° 0 mm 3 mps 738 mmHg 76%
20:00 +20°C° 0 mm 3 mps 738 mmHg 77%
21:00 +19°C° 0 mm 3 mps 738 mmHg 79%
22:00 +18°C° 0 mm 3 mps 739 mmHg 80%
23:00 +18°C° 0 mm 3 mps 738 mmHg 80%

8 Agosto, Domingo

Tiempo Temperatura Precipitaciones Viento Presión Humedad
00:00 +17°C° 0 mm 3 mps 738 mmHg 80%
01:00 +17°C° 0 mm 3 mps 738 mmHg 80%
02:00 +17°C° 0 mm 3 mps 738 mmHg 79%
03:00 +17°C° 0 mm 3 mps 738 mmHg 79%
04:00 +17°C° 0 mm 3 mps 738 mmHg 78%
05:00 +18°C° 0 mm 3 mps 738 mmHg 75%
06:00 +19°C° 0 mm 3 mps 738 mmHg 73%
07:00 +20°C° 0 mm 3 mps 738 mmHg 70%
08:00 +21°C° 0 mm 5 mps 738 mmHg 67%
09:00 +22°C° 0 mm 7 mps 739 mmHg 64%
10:00 +24°C° 0 mm 9 mps 740 mmHg 61%
11:00 +24°C° 0 mm 8 mps 740 mmHg 61%
12:00 +24°C° 0 mm 7 mps 741 mmHg 60%
13:00 +23°C° 0 mm 6 mps 742 mmHg 60%
14:00 +24°C° 0 mm 6 mps 742 mmHg 59%
15:00 +25°C° 0 mm 5 mps 742 mmHg 59%
16:00 +25°C° 0 mm 5 mps 742 mmHg 58%
17:00 +22°C° 0 mm 3 mps 743 mmHg 63%
18:00 +21°C° 0 mm 2 mps 743 mmHg 68%
19:00 +21°C° 0 mm 1 mps 743 mmHg 73%
20:00 +20°C° 0 mm 1 mps 743 mmHg 75%
21:00 +19°C° 0 mm 1 mps 744 mmHg 76%
22:00 +19°C° 0 mm 1 mps 744 mmHg 77%
23:00 +18°C° 0 mm 1 mps 744 mmHg 79%

9 Agosto, Lunes

Tiempo Temperatura Precipitaciones Viento Presión Humedad
00:00 +18°C° 0 mm 1 mps 744 mmHg 81%
01:00 +16°C° 0 mm 1 mps 744 mmHg 83%
02:00 +16°C° 0 mm 1 mps 744 mmHg 84%
03:00 +15°C° 0 mm 1 mps 745 mmHg 84%
04:00 +15°C° 0 mm 1 mps 745 mmHg 85%
05:00 +18°C° 0 mm 1 mps 745 mmHg 80%
06:00 +19°C° 0 mm 1 mps 745 mmHg 74%
07:00 +19°C° 0 mm 0 mps 745 mmHg 68%
08:00 +22°C° 0 mm 1 mps 745 mmHg 62%
09:00 +24°C° 0 mm 1 mps 745 mmHg 56%
10:00 +26°C° 0 mm 1 mps 745 mmHg 50%
11:00 +27°C° 0 mm 1 mps 745 mmHg 48%
12:00 +27°C° 0 mm 1 mps 745 mmHg 45%
13:00 +28°C° 0 mm 1 mps 745 mmHg 42%
14:00 +28°C° 0 mm 1 mps 745 mmHg 42%
15:00 +28°C° 0 mm 1 mps 744 mmHg 43%
16:00 +28°C° 0 mm 2 mps 744 mmHg 43%
17:00 +26°C° 0 mm 2 mps 744 mmHg 51%
18:00 +24°C° 0 mm 2 mps 744 mmHg 58%
19:00 +23°C° 0 mm 2 mps 744 mmHg 65%
20:00 +21°C° 0 mm 2 mps 744 mmHg 68%
21:00 +20°C° 0 mm 2 mps 744 mmHg 72%
22:00 +19°C° 0 mm 2 mps 744 mmHg 75%
23:00 +19°C° 0.1 mm 1 mps 744 mmHg 78%
Mostrar más

Necesitamos Su Consentimiento

Meteoprog y nuestros Proveedores de Servicios pueden almacenar y acceder a sus datos personales como cookies, identificadores de dispositivo u otras tecnologías similares de su dispositivo y procesar dichos datos para personalizar contenido y anuncios, además de ofrecer funciones de redes sociales y analizar el tráfico.

  • Almacenar y/o acceder a información en su dispositivo

    Se puede almacenar o acceder a cookies, identificadores de dispositivo u otra información de su dispositivo para los fines anteriormente indicados.

  • Anuncios y contenido personalizados, medición de anuncios y contenido, percepciones del público, y desarrollo de productos

    Los anuncios y el contenido pueden personalizarse en base a su perfil. Se pueden añadir más datos para personalizar mejor los anuncios y contenidos. Se puede medir el rendimiento de los anuncios y contenidos. Se puede obtener la percepción sobre el público que ha visto los anuncios y contenidos. Dichos datos pueden usarse para desarrollar o mejorar la experiencia del usuario, sistemas y software.

Al hacer clic en ‘Estoy De Acuerdo’ usted permitirá el uso de las cookies, identificadores de dispositivo, balizas web u otras tecnologías similares indicadas. Su configuración puede cambiarse desde el navegador de su dispositivo.

Para ciertos fines, los intereses legítimos pueden ser considerados por encima del consentimiento. Puede leer más sobre ello en nuestra Política de Privacidad y Cookies.